MOLNIYA 3-42

Last updated on Aug. 6, 2020, 5:30 a.m. UTC

1 22178U 92067A   20217.96096828  .00000015  00000-0  00000-0 0  9990
2 22178  64.7269 293.3999 6721587 276.9163  16.8250  2.20434249 65159
UTC
Height (km)
Latitude
Longitude
Inclination
Orbital Period
UTC large
Height (km)
Speed (km/s)
/
Latitude / Longitude
Inclination (degrees)
Orbital Period (minutes)
Azimuth
Elevation
Range (km)
Doppler Factor
iOS Compass Heading
iOS Angle

Next 30 passes for location: Hong Kong

Rise time Rise Azimuth (degrees) Set time Set Azimuth (degrees) Duration Max altitude (degrees)

No matching passes for this satellites